User: anonymous   Login
Location: Morehead State University
(38.1872°N, 83.4339°W)
Time: 20:50:45
(UTC-04:00)
Language:

Okean 2 - Orbit

View from above orbital plane
View from above orbital plane
View from above satellite
View from above satellite

Ground track
Ground track

The orbit data is extracted from the following two-line orbital elements,

1 20510U 90018A   17084.91802997 +.00000441 +00000-0 +34257-4 0  9995
2 20510 082.5139 251.3947 0010802 262.5198 209.6189 14.98847100447858
Epoch (UTC): 25 March 2017 22:01:57
Eccentricity: 0.0010802
inclination: 82.5139°
perigee height: 563 km
apogee height: 578 km
right ascension of ascending node: 251.3947°
argument of perigee: 262.5198°
revolutions per day: 14.98847100
mean anomaly at epoch: 209.6189°
orbit number at epoch: 44785

The dashed part of the orbit path shows where the satellite is in the earth's shadow,  

DLR